Date,TemperatureHighF,TemperatureAvgF,TemperatureLowF,DewpointHighF,DewpointAvgF,DewpointLowF,HumidityHigh,HumidityAvg,HumidityLow,PressureMaxIn,PressureMinIn,WindSpeedMaxMPH,WindSpeedAvgMPH,GustSpeedMaxMPH,PrecipitationSumIn
2013-1-1,28,20,14,21,16,10,88,83,72,30.35,30.15,13,6,16,0.00
2013-1-2,32,27,13,28,22,8,88,82,78,30.34,30.12,12,7,18,0.01
2013-1-3,28,21,12,22,16,7,87,79,67,30.47,30.33,11,5,18,0.00
2013-1-4,40,22,7,25,13,2,83,72,49,30.34,30.14,8,2,9,0.00
2013-1-5,38,22,10,26,15,6,86,77,60,30.34,30.09,17,6,29,0.00
2013-1-6,43,26,10,28,18,6,86,73,52,30.37,30.05,15,6,18,0.00
2013-1-7,44,32,21,27,23,17,85,71,49,30.07,29.97,16,4,23,0.00
2013-1-8,46,30,15,33,23,12,89,77,54,30.22,29.83,12,4,14,0.00
2013-1-9,52,35,21,33,26,16,93,70,43,30.43,30.23,13,5,20,0.00
2013-1-10,36,35,35,33,33,33,92,91,91,29.70,29.61,16,11,20,0.07
2013-1-11,39,34,20,37,31,16,92,91,85,29.69,29.40,21,9,23,0.00
2013-1-12,11,10,8,6,4,3,80,78,72,30.30,30.23,11,8,16,0.00
2013-1-13,20,11,5,9,3,-1,80,71,58,30.47,30.30,10,5,15,0.00
2013-1-14,28,12,-2,12,3,-7,81,68,43,30.57,30.44,13,4,17,0.00
2013-1-15,34,20,9,14,7,3,85,62,27,30.44,30.07,15,6,24,0.00
2013-1-16,50,38,23,31,27,14,84,65,39,30.33,29.99,18,8,27,0.01
2013-1-17,50,34,21,32,26,18,89,73,41,30.50,30.25,8,3,9,0.00
2013-1-18,61,42,30,26,22,17,78,51,19,30.25,29.90,14,7,17,0.00
2013-1-19,51,37,16,27,22,7,73,56,38,30.41,29.89,15,8,22,0.00
2013-1-20,21,15,12,10,6,4,76,67,58,30.53,30.35,8,3,13,0.00
2013-1-21,9,8,8,2,2,1,75,74,70,30.49,30.47,3,2,7,0.00
2013-1-22,26,16,9,12,7,2,81,70,49,30.49,30.29,13,5,18,0.00
2013-1-23,24,16,6,15,9,0,84,73,56,30.64,30.27,10,3,16,0.00
2013-1-24,19,10,0,7,-1,-6,87,62,40,30.64,30.25,12,6,21,0.00
2013-1-25,47,29,16,25,18,6,85,65,36,30.33,30.24,8,4,13,0.00
2013-1-26,57,34,16,29,21,13,86,63,27,30.28,29.96,20,7,26,0.00
2013-1-27,42,38,34,40,34,26,95,85,55,29.97,29.71,8,3,12,0.18
2013-1-28,36,32,28,34,30,26,93,92,91,29.86,29.70,8,2,9,0.03
2013-1-29,31,27,20,27,22,16,86,84,80,29.92,29.83,17,13,22,0.00
2013-1-30,20,16,8,16,11,3,87,80,72,30.08,29.91,18,9,28,0.00
2013-1-31,8,3,-5,3,-4,-11,82,72,62,30.56,30.08,15,7,24,0.00